Content
SEND FEEDBACK

Daily
Averages
Monthly
Summary
United States of America

WINDSOR, MISSOURI


Home > North America > United States > Missouri
Elevation: 290 meters     Latitude: 38 33N     Longitude: 093 33W

WEATHER
 
SELECT A DAY
Number of Records: 133,809;   Date Range: 5/14/09 - 12/19/14
 
SHARE

PRINT THIS DATA

[ ← Previous Day ]
WEATHER ALMANAC - 31 JANUARY, 2013
[ Next Day → ]
[ °F ]   °C
Weather ElementAverageHighLow
Temperature-4.4 °C0 °C (10:35 am)-11 °C (11:35 pm)
Dewpoint-9.6 °C-3 °C (9:15 am)-16 °C (11:15 pm)
Humidity68.2 %86 % (1:35 am)47 % (3:15 pm)
Barometer1022 hPa1032.2 hPa (10:15 pm)1014.6 hPa (5:15 am)

Weather ElementAverage
Weather ElementTotal
Precipitation---
Heating Degree Days23.8 (Base 18.3)
Averaged from 71 records on 31 January, 2013
WEATHER CONDITIONS BREAKOUT
WIND DIRECTION BREAKOUT
WEATHER BY HOUR - 31 JANUARY, 2013
[ °F ]   °C
Local TimeTemperatureDewpointHumidityBarometerVisibilityWind DirectionWind SpeedGust SpeedPrecipitationEventsConditions
12:35 AM-3 °C-7 °C74 %1015.9 hPa16.1 kmCalmMostly Cloudy
12:55 AM-4 °C-8 °C74 %1015.9 hPa16.1 kmCalmPartly Cloudy
1:15 AM-4 °C-7 °C80 %1015.6 hPa16.1 kmCalmClear
1:35 AM-5 °C-7 °C86 %1015.9 hPa16.1 kmCalmClear
1:55 AM-5 °C-7 °C86 %1015.6 hPa16.1 kmCalmClear
2:15 AM-4 °C-7 °C80 %1015.6 hPa16.1 kmCalmClear
2:35 AM-4 °C-7 °C80 %1015.6 hPa16.1 kmCalmClear
2:55 AM-4 °C-7 °C80 %1015.6 hPa16.1 kmCalmPartly Cloudy
3:15 AM-3 °C-7 °C74 %1015.6 hPa16.1 kmCalmPartly Cloudy
3:35 AM-3 °C-7 °C74 %1015.6 hPa16.1 kmCalmMostly Cloudy
3:55 AM-3 °C-6 °C80 %1015.6 hPa16.1 kmCalmOvercast
4:15 AM-3 °C-6 °C80 %1015.6 hPa16.1 kmCalmOvercast
4:35 AM-2 °C-6 °C74 %1015.2 hPa16.1 kmCalmOvercast
4:55 AM-2 °C-6 °C74 %1014.9 hPa16.1 kmCalmOvercast
5:15 AM-2 °C-6 °C74 %1014.6 hPa14.5 kmCalmOvercast
5:35 AM-2 °C-5 °C80 %1014.9 hPa16.1 kmCalmMostly Cloudy
5:55 AM-2 °C-5 °C80 %1015.2 hPa14.5 kmCalmMostly Cloudy
6:15 AM-2 °C-5 °C80 %1015.2 hPa14.5 kmCalmScattered Clouds
6:35 AM-2 °C-5 °C80 %1015.2 hPa14.5 kmCalmScattered Clouds
6:55 AM-3 °C-5 °C86 %1015.6 hPa14.5 kmCalmPartly Cloudy
7:15 AM-3 °C-5 °C86 %1015.9 hPa12.9 kmCalmClear
7:35 AM-3 °C-5 °C86 %1016.3 hPa9.7 kmCalmClear
7:55 AM-3 °C-5 °C86 %1016.6 hPa9.7 kmCalmClear
8:15 AM-2 °C-4 °C86 %1017.3 hPa11.3 kmCalmClear
8:35 AM-1 °C-4 °C80 %1017.6 hPa11.3 kmCalmClear
8:55 AM-1 °C-4 °C80 %1017.9 hPa11.3 kmCalmPartly Cloudy
9:15 AM-1 °C-3 °C86 %1018.6 hPa12.9 kmCalmMostly Cloudy
9:35 AM-1 °C-4 °C80 %1018.6 hPa12.9 kmCalmMostly Cloudy
9:55 AM-1 °C-5 °C75 %1018.6 hPa12.9 kmCalmScattered Clouds
10:15 AM-1 °C-5 °C75 %1019.3 hPa12.9 kmCalmPartly Cloudy
10:35 AM0 °C-5 °C69 %1019.3 hPa14.5 kmCalmClear
10:55 AM0 °C-6 °C64 %1019.6 hPa14.5 kmCalmScattered Clouds
11:15 AM0 °C-6 °C64 %1019.6 hPa14.5 kmCalmPartly Cloudy
11:35 AM0 °C-7 °C60 %1020.3 hPa14.5 kmCalmPartly Cloudy
11:55 AM-1 °C-7 °C64 %1020.3 hPa14.5 kmCalmPartly Cloudy
12:15 PM-1 °C-7 °C64 %1021 hPa6.4 kmCalmHaze
12:35 PM-2 °C-7 °C69 %1021.7 hPa11.3 kmCalmRainLight Rain
12:55 PM-2 °C-11 °C51 %1022 hPa16.1 kmCalmScattered Clouds
1:15 PM-2 °C-11 °C51 %1022.4 hPa14.5 kmCalmRainLight Rain
1:35 PM-2 °C-10 °C55 %1022.4 hPa16.1 kmCalmMostly Cloudy
1:55 PM-3 °C-12 °C51 %1022.7 hPa16.1 kmCalmOvercast
2:15 PM-3 °C-12 °C51 %1023.4 hPa16.1 kmCalmOvercast
2:35 PM-3 °C-12 °C51 %1023.7 hPa16.1 kmCalmMostly Cloudy
2:55 PM-3 °C-12 °C51 %1024 hPa16.1 kmCalmPartly Cloudy
3:15 PM-3 °C-13 °C47 %1024 hPa14.5 kmCalmClear
3:35 PM-3 °C-12 °C51 %1024 hPa16.1 kmCalmClear
3:55 PM-3 °C-13 °C47 %1024.4 hPa16.1 kmCalmClear
4:15 PM-4 °C-13 °C50 %1024.7 hPa14.5 kmCalmPartly Cloudy
4:35 PM-3 °C-12 °C51 %1025.1 hPa14.5 kmCalmClear
4:55 PM-5 °C-13 °C54 %1025.4 hPa14.5 kmCalmClear
5:15 PM-5 °C-13 °C54 %1025.7 hPa16.1 kmCalmClear
5:35 PM-6 °C-13 °C58 %1026.4 hPa14.5 kmCalmClear
5:55 PM-7 °C-15 °C54 %1026.8 hPa16.1 kmCalmClear
6:15 PM-8 °C-15 °C58 %1027.1 hPa16.1 kmCalmClear
6:35 PM-8 °C-15 °C58 %1028.1 hPa16.1 kmCalmClear
6:55 PM-8 °C-15 °C58 %1028.4 hPa16.1 kmCalmClear
7:15 PM-9 °C-15 °C62 %1028.8 hPa16.1 kmCalmClear
7:35 PM-9 °C-14 °C68 %1029.1 hPa16.1 kmCalmClear
7:55 PM-9 °C-14 °C68 %1029.5 hPa16.1 kmCalmClear
8:15 PM-9 °C-15 °C62 %1030.1 hPa16.1 kmCalmClear
8:35 PM-10 °C-15 °C67 %1030.1 hPa16.1 kmNorthClear
8:55 PM-10 °C-15 °C67 %1030.5 hPa16.1 kmNorthClear
9:15 PM-10 °C-15 °C67 %1031.2 hPa16.1 kmNorthClear
9:35 PM-10 °C-15 °C67 %1031.5 hPa16.1 kmNorthClear
9:55 PM-10 °C-15 °C67 %1031.8 hPa16.1 kmNorthClear
10:15 PM-10 °C-15 °C67 %1032.2 hPa16.1 kmNorthClear
10:35 PM-10 °C-15 °C67 %1032.2 hPa16.1 kmNorthClear
10:55 PM-10 °C-15 °C67 %1031.8 hPa16.1 kmNorthClear
11:15 PM-10 °C-16 °C62 %1031.8 hPa16.1 kmNorthClear
11:35 PM-11 °C-16 °C67 %1031.8 hPa16.1 kmNorthClear
11:55 PM-11 °C-16 °C67 %1031.5 hPa16.1 kmNorthClear
Hourly data recorded from KGLY, located 0 kilometers away from Windsor, Missouri







STORIES FROM OUR PARTNERS